Regional Weather Roundup
Issued by NWS Cleveland, OH

Home | Current Version | Previous Version | Text Only | Print | Product List | Glossary Off
Versions: 1 2 3 4 5 6 7 8 9 10 11 12 13 14 15 16 17 18 19 20 21 22 23 24 25 26 27 28 29 30 31 32 33 34 35 36 37 38 39 40 41 42 43 44 45 46 47 48 49 50

000
ASUS41 KCLE 260300
RWRCLE
OHIO REGIONAL WEATHER ROUNDUP
NATIONAL WEATHER SERVICE WILMINGTON, OH
1100 PM EDT FRI JUL 25 2014

NOTE: "FAIR" INDICATES FEW OR NO CLOUDS BELOW 12,000 FEET WITH NO
SIGNIFICANT WEATHER AND/OR OBSTRUCTIONS TO VISIBILITY.

OHZ001>008-015>018-024>027-034-035-043-044-260400-
   NORTHWEST OHIO

CITY           SKY/WX    TMP DP  RH WIND       PRES   REMARKS
DEFIANCE       PTCLDY    68  57  68 CALM      30.00R
FINDLAY        CLOUDY    68  59  73 S8        29.99F
TOLEDO EXPRESS CLOUDY    66  59  78 S5        29.98S
TOLEDO METCALF CLOUDY    69  57  65 S5        29.99S
LIMA           CLOUDY    68  59  73 CALM      30.01S
$$

OHZ009>014-019>023-028>033-038-089-260400-
   NORTHEAST OHIO

CITY           SKY/WX    TMP DP  RH WIND       PRES   REMARKS
CLE-HOPKINS    LGT RAIN  67  56  67 SE5       30.02F
CLE-LAKEFRONT  LGT RAIN  69  55  60 SE5       29.99S
CUY CO. ARPT   CLOUDY    66  61  82 SE7       30.01F
LORAIN-ELYRIA  LGT RAIN  68  59  73 CALM      30.01F
ASHTABULA      CLOUDY    61  57  87 CALM      30.02F
AKRON-CANTON   LGT RAIN  70  55  59 CALM      30.03R
WOOSTER        NOT AVBL
MANSFIELD      CLOUDY    68  57  68 CALM      30.03S
YOUNGSTOWN     CLOUDY    65  55  70 CALM      30.02S
$$

OHZ042-051>053-060>062-070>072-077>081-260400-
  SOUTHWEST OHIO

CITY           SKY/WX    TMP DP  RH WIND       PRES   REMARKS
CINC-COVINGTON MOCLDY    67  58  72 CALM      30.01R
CINC-LUNKEN    MOCLDY    68  62  81 CALM      30.00R
HAMILTON       MOCLDY    67  62  84 CALM      30.01R
DAYTON         NOT AVBL
WRIGHT-PAT AFB MOCLDY    69  60  73 N1        30.01S
DAYTON GENERAL CLOUDY    70  60  70 CALM      30.01R
WILMINGTON     MOCLDY    70  59  68 NW5       30.02R
$$

OHZ036-037-039>041-045>050-054>059-063>069-073>076-082>088-260400-
  CENTRAL AND SOUTHEAST OHIO

CITY           SKY/WX    TMP DP  RH WIND       PRES   REMARKS
COLUMBUS       CLOUDY    73  58  59 CALM      30.01R
OSU AIRPORT    CLOUDY    70  60  70 N5        30.01R
BOLTON FIELD   NOT AVBL
RICKENBACK AFB NOT AVBL
NEWARK         CLOUDY    68  62  81 CALM      30.00S
MARION         CLOUDY    68  60  75 CALM      30.02S
LANCASTER      CLOUDY    68  61  78 CALM      30.01R
ZANESVILLE     CLOUDY    67  61  81 S3        30.01S
NEW PHILLY     CLOUDY    66  60  81 CALM      30.03R
$$


USA.gov is the U.S. government's official web portal to all federal, state and local government web resources and services.